Regional Weather Roundup
Issued by NWS

Home | Current Version | Previous Version | Graphics & Text | Print | Product List | Glossary On
Versions: 1 2 3 4 5 6 7 8 9 10 11 12 13 14 15 16 17 18 19 20 21 22 23 24 25 26 27 28 29 30 31 32 33 34 35 36 37 38 39 40 41 42 43 44 45 46 47 48 49 50
000
ASUS43 KFSD 262210
RWRSD

WEATHER ROUNDUP FOR SOUTH DAKOTA
NATIONAL WEATHER SERVICE SIOUX FALLS SD
500 PM CDT SUN APR 26 2015

NOTE: "FAIR" INDICATES FEW OR NO CLOUDS BELOW 12,000 FEET WITH NO
SIGNIFICANT WEATHER AND/OR OBSTRUCTIONS TO VISIBILITY.


SDZ001>005-009-010-012>017-262300-
NORTHWEST AND NORTH CENTRAL SOUTH DAKOTA

CITY           SKY/WX    TMP DP  RH WIND       PRES   REMARKS
BUFFALO          N/A     47  46  97 NE16      29.99S
FAITH            N/A     58  40  51 E5        30.04S
MOBRIDGE       MOSUNNY   68  34  28 S13       30.02S
$$

SDZ012>016-024>037-041>051-057-063-072>074-262300-
SOUTHWEST AND SOUTH CENTRAL SOUTH DAKOTA

CITY           SKY/WX    TMP DP  RH WIND       PRES   REMARKS
RAPID CTY ARPT LGT RAIN  51  46  83 CALM      30.03R
PIERRE         CLOUDY    62  38  40 E9        30.03S
CUSTER         LGT RAIN  40  37  89 N5        30.02S
ELLSWORTH AFB  LGT RAIN  50  48  93 CALM      30.02S
PHILIP         CLOUDY    60  39  45 E10G17    30.02F
PINE RIDGE     CLOUDY    53  42  66 E9        30.00S
SPEARFISH      FAIR      48  43  81 E12       30.04R
WINNER         FAIR      64  36  35 E12G18    30.02F
$$

SDZ004>011-016>023-039-040-262300-
NORTHEAST SOUTH DAKOTA

CITY           SKY/WX    TMP DP  RH WIND       PRES   REMARKS
ABERDEEN       SUNNY     68  32  26 CALM      30.06F
WATERTOWN      SUNNY     63  29  27 VRB5      30.07F
BROOKINGS      SUNNY     63  32  31 E6        30.07S
SISSETON         N/A     66  26  22 SE9       30.08F
$$

SDZ017-020-022-023-036>040-048>070-262300-
SOUTHEAST SOUTH DAKOTA

CITY           SKY/WX    TMP DP  RH WIND       PRES   REMARKS
SIOUX FALLS    MOSUNNY   66  31  27 NE10G16   30.03S
HURON          SUNNY     67  31  26 E5        30.04F
CHAMBERLAIN    MOSUNNY   63  32  30 SE8G17    30.03F
MITCHELL       SUNNY     65  34  31 E5        30.05S
YANKTON        SUNNY     66  30  26 E10G17    30.01S
$$

ABBREVIATIONS USED IN REMARKS
   TC - TEMPERATURE IN CELSIUS
  WCI - WIND CHILL INDEX
   HX - HEAT INDEX
  VSB - VISIBILITY




USA.gov is the U.S. government's official web portal to all federal, state and local government web resources and services.